This is the latest recevied weather packets stored in our database for station/object W4OTS. If no packets are shown the sender has not sent any weather packets the latest 1 day(s).
| Time | Temp. | Humidity | Pressure | Rain* | Wind** | Luminosity | Snow |
|---|---|---|---|---|---|---|---|
| 1778025498 | 22.78° C | 49% | 1015.4 hPa | 0 mm | 1.34 m/s, 215° | 6 W/m² | - |
| 1778025196 | 22.78° C | 48% | 1015.5 hPa | 0 mm | 0.89 m/s, 209° | 6 W/m² | - |
| 1778024893 | 22.78° C | 48% | 1015.6 hPa | 0 mm | 0.45 m/s, 221° | 8 W/m² | - |
| 1778024591 | 22.78° C | 48% | 1015.5 hPa | 0 mm | 0.45 m/s, 217° | 11 W/m² | - |
| 1778024287 | 22.78° C | 48% | 1015.5 hPa | 0 mm | 0.45 m/s, 219° | 12 W/m² | - |
| 1778023985 | 23.33° C | 48% | 1015.5 hPa | 0 mm | 0.89 m/s, 204° | 14 W/m² | - |
| 1778023682 | 23.33° C | 47% | 1015.1 hPa | 0 mm | 0.45 m/s, 206° | 19 W/m² | - |
| 1778023380 | 23.33° C | 46% | 1015.3 hPa | 0 mm | 1.34 m/s, 189° | 23 W/m² | - |
| 1778023076 | 23.33° C | 46% | 1015 hPa | 0 mm | 0.45 m/s, 214° | 22 W/m² | - |
| 1778022775 | 23.33° C | 45% | 1015.3 hPa | 0 mm | 1.34 m/s, 221° | 24 W/m² | - |
| 1778022472 | 23.33° C | 45% | 1015 hPa | 0 mm | 1.34 m/s, 239° | 23 W/m² | - |
| 1778022169 | 23.89° C | 45% | 1015.1 hPa | 0 mm | 1.34 m/s, 206° | 24 W/m² | - |
| 1778021866 | 23.89° C | 45% | 1015.5 hPa | 0 mm | 0.89 m/s, 223° | 27 W/m² | - |
| 1778021563 | 23.89° C | 45% | 1015.4 hPa | 0 mm | 0.89 m/s, 240° | 31 W/m² | - |
| 1778021258 | 23.89° C | 44% | 1015.4 hPa | 0 mm | 2.68 m/s, 244° | 28 W/m² | - |
| 1778020956 | 23.89° C | 46% | 1015.4 hPa | 0 mm | 0.89 m/s, 234° | 31 W/m² | - |
| 1778020653 | 23.89° C | 45% | 1015.5 hPa | 0 mm | 0.45 m/s, 249° | 34 W/m² | - |
| 1778020349 | 23.89° C | 44% | 1015.6 hPa | 0 mm | 1.79 m/s, 161° | 34 W/m² | - |
| 1778020045 | 23.89° C | 44% | 1015.7 hPa | 0 mm | 1.34 m/s, 230° | 40 W/m² | - |
| 1778019741 | 23.89° C | 43% | 1015.5 hPa | 0 mm | 0.89 m/s, 209° | 60 W/m² | - |
| 1778019439 | 23.89° C | 43% | 1015.3 hPa | 0 mm | 1.79 m/s, 198° | 59 W/m² | - |
| 1778019135 | 23.89° C | 44% | 1015.3 hPa | 0 mm | 1.79 m/s, 185° | 48 W/m² | - |
| 1778018832 | 23.89° C | 44% | 1015.3 hPa | 0 mm | 0.89 m/s, 190° | 51 W/m² | - |
| 1778018530 | 23.89° C | 45% | 1015.4 hPa | 0 mm | 0.89 m/s, 260° | 49 W/m² | - |
| 1778018228 | 23.89° C | 44% | 1015.4 hPa | 0 mm | 0.45 m/s, 237° | 47 W/m² | - |
* Rain latest hour (hover to see other rain measurements)
** Current wind speed in m/s (hover to see current wind gust speed)